Temp
8 8 8 8 9 9 9 10 11 12 12 13 13 13 13 13 13 13 13 13 13 13
8 8 8 7 8 8 8 9 8 10 11 11 12 12 13 13 14 13 13 13 13 13
6 6 7 8 7 7 7 8 8 9 9 9 10 11 11 12 13 13 13 13 13 13
5 6 6 5 6 6 7 7 7 6 8 8 8 9 9 10 10 11 12 13 13 13
6 6 5 5 6 6 7 7 7 7 7 6 7 7 7 7 8 9 9 10 11 13
6 5 5 5 5 6 6 6 6 7 6 6 6 6 6 7 7 7 7 7 8 9
3 4 4 4 4 4 4 5 5 5 5 5 5 5 4 4 4 5 6 7 7 8
3 3 3 3 3 3 3 3 3 3 4 4 4 2 3 3 3 3 3 4 5 6
3 3 3 2 2 2 2 2 2 2 2 3 3 3 2 2 2 2 2 2 3 3
2 2 1 2 2 2 2 2 2 2 2 2 2 2 1 1 2 2 2 2 2 2
2 2 1 1 1 1 0 0 0 0 1 1 1 1 0 1 1 0 1 1 2 2
1 0 -0 -0 -1 -1 -1 -1 -1 -0 -0 -0 0 0 -0 -0 -0 -0 -0 0 1 1
-0 -1 -1 -1 -1 -2 -2 -2 -2 -1 -1 -1 -1 -0 -1 -1 -0 -1 -1 -1 -0 0
-2 -2 -2 -3 -3 -3 -3 -3 -2 -2 -1 -0 -0 -0 -0 -1 -1 -1 -1 -0 -0 -0
Height
767 766 766 766 764 762 762 762 761 757 757 756 754 752 751 750 751 750 750 749 749 754
769 768 768 767 766 763 764 762 762 758 755 753 749 749 745 741 741 742 741 741 742 746
771 770 767 765 769 765 765 763 763 757 754 753 750 749 746 743 740 740 735 735 736 739
775 773 770 770 767 771 764 764 763 762 756 753 752 748 746 743 740 738 738 737 731 732
775 775 773 770 768 770 767 765 762 761 756 755 753 750 745 742 741 738 737 736 733 731
780 778 775 774 773 769 767 765 763 760 758 755 753 750 747 744 742 740 738 736 733 731
784 781 778 776 774 771 769 767 765 763 760 756 754 752 748 745 743 740 736 735 734 732
783 782 780 778 775 772 770 768 767 763 759 756 753 752 748 745 742 739 734 733 731 729
783 781 779 777 774 772 768 766 764 761 758 755 753 750 746 744 742 738 735 731 727 725
783 780 777 775 773 770 767 764 761 758 755 752 750 746 744 742 739 736 732 729 726 722
780 779 777 774 772 769 767 764 760 757 755 751 748 745 742 739 736 732 731 728 723 720
781 778 776 773 771 768 764 760 756 753 749 746 743 740 738 735 733 730 727 723 719 717
779 776 773 771 768 765 762 758 754 749 747 744 741 739 736 734 731 727 724 720 716 713
778 775 772 768 765 761 757 754 750 746 741 738 736 733 731 729 727 724 720 717 713 711
Wind_Speed
18 18 18 18 16 16 15 12 12 8 8 7 13 25 32 34 33 32 35 34 32 28
21 22 23 23 21 20 18 18 18 16 14 12 14 13 17 25 28 30 32 29 29 31
20 18 20 21 20 21 19 20 19 19 18 18 16 18 16 15 13 13 22 31 31 30
19 20 19 18 19 18 20 18 20 17 16 17 18 17 18 16 15 14 16 21 18 26
21 19 20 20 20 17 19 19 19 20 21 19 19 17 19 18 18 19 19 19 16 21
17 18 19 18 18 18 18 19 19 20 20 21 21 20 19 18 19 17 16 20 19 20
10 14 15 16 17 18 17 18 19 19 19 19 19 18 20 19 18 18 18 18 18 19
12 13 13 14 16 17 17 16 17 19 19 19 18 16 20 20 19 19 19 17 16 18
13 14 14 15 15 16 17 18 19 18 18 19 19 20 20 19 19 18 18 20 21 19
13 14 16 17 19 20 21 21 21 21 21 21 22 21 20 19 18 20 19 20 21 23
17 17 17 18 18 18 19 19 20 19 18 19 20 20 20 20 20 20 21 21 23 22
14 15 17 18 19 20 21 23 23 22 21 19 19 19 20 20 19 20 21 20 20 20
15 16 19 20 23 23 22 23 23 23 22 20 19 19 18 18 17 17 17 19 20 19
14 16 18 20 19 22 23 22 24 23 25 22 20 23 24 22 18 18 19 19 19 19
Wind_Direction
69 65 56 46 43 43 26 19 359 14 4 331 305 272 258 249 253 245 232 227 216 221
62 61 55 47 42 39 29 23 360 12 6 1 8 337 335 248 238 245 231 224 225 225
56 55 55 50 37 36 32 25 10 14 15 2 357 348 346 357 336 300 233 228 218 219
54 53 54 52 44 30 31 25 21 12 20 11 5 3 353 350 349 2 327 289 247 226
44 42 44 42 42 32 27 24 21 13 14 10 7 4 3 357 352 350 335 326 341 264
34 32 34 31 27 26 21 17 14 14 9 6 3 360 357 353 348 343 343 336 328 316
42 38 34 29 24 22 16 13 7 7 4 2 358 356 354 350 342 336 333 328 326 325
27 23 21 19 17 14 12 7 2 357 356 355 355 352 350 346 339 334 331 327 326 321
8 5 5 4 4 1 0 356 353 351 348 344 342 342 342 342 333 334 327 323 325 324
4 4 2 358 354 353 351 345 341 340 339 335 332 337 335 333 328 325 322 319 316 320
355 352 348 347 347 344 339 335 330 324 321 320 321 325 325 325 321 321 316 314 315 311
343 340 340 339 337 335 333 332 332 328 323 317 317 323 322 319 315 315 316 317 314 309
331 332 332 332 331 328 328 325 326 323 324 319 313 320 318 315 310 309 313 313 313 313
330 327 330 326 332 333 335 331 332 329 328 323 323 324 324 321 313 310 311 313 313 312